This demonstration page uses our WeatherBlox Daily Observations layout. Learn more.

Left ArrowRight Arrow

34.02893, -84.19858

Hourly Observations for October 20, 2019

Temp ( °F °C ) Dew Point ( °F °C ) Humidity (%) Winds ( mph kmh ) Pressure ( in mb ) Visibility ( mi km ) Precip ( " mm )
12:53 am 00:53 Cloudy 55 12.8 54 12.2 96 96 NE 9 15 29.75 1007 8 13 0.00 0.00
1:53 am 01:53 Cloudy 56 13.3 55 12.8 97 97 N 7 11 29.75 1008 10 16 0.00 0.00
2:53 am 02:53 Cloudy 57 13.9 55 12.8 93 93 N 6 9 29.75 1008 10 16 0.00 0.00
3:30 am 03:30 Cloudy with Light Rain 56 13.3 56 13.3 100 100 NNW 6 9 29.77 1008 3 4 0.00 0.00
3:53 am 03:53 Cloudy with Mist and Fog 56 13.3 56 13.3 100 100 NNW 7 11 29.76 1008 3 4 0.00 0.00
4:01 am 04:01 Cloudy with Mist and Fog 56 13.3 56 13.3 100 100 NW 7 11 29.77 1008 3 5 0.00 0.00
4:21 am 04:21 Cloudy 57 13.9 56 13.3 96 96 NW 6 9 29.77 1008 7 11 0.00 0.00
4:53 am 04:53 Cloudy 57 13.9 56 13.3 96 96 NW 5 7 29.77 1008 10 16 0.00 0.00
5:08 am 05:08 Cloudy 57 13.9 57 13.9 100 100 NW 6 9 29.78 1008 10 16 0.00 0.00
5:20 am 05:20 Cloudy 57 13.9 56 13.3 96 96 NW 8 13 29.78 1008 10 16 0.00 0.00
5:53 am 05:53 Cloudy 57 13.9 56 13.3 96 96 NW 8 13 29.79 1009 10 16 0.00 0.00
6:21 am 06:21 Cloudy 57 13.9 57 13.9 100 100 W 6 9 29.81 1009 10 16 0.00 0.00
6:53 am 06:53 Cloudy 57 13.9 56 13.3 96 96 W 9 15 29.83 1010 10 16 0.00 0.00
7:25 am 07:25 Cloudy 57 13.9 56 13.3 96 96 WNW 10 17 29.84 1010 8 13 0.00 0.00
7:53 am 07:53 Cloudy 57 13.9 56 13.3 96 96 WNW 7 11 29.85 1011 7 11 0.00 0.00
8:53 am 08:53 Cloudy 57 13.9 56 13.3 96 96 WNW 8 13 29.87 1012 7 11 0.00 0.00
9:25 am 09:25 Cloudy 58 14.4 57 13.9 97 97 W 7 11 29.88 1012 8 13 0.00 0.00
9:53 am 09:53 Cloudy 59 15 57 13.9 93 93 NW 8 13 29.90 1013 10 16 0.00 0.00
10:53 am 10:53 Cloudy 61 16.1 58 14.4 90 90 NW 12 19 29.91 1013 10 16 0.00 0.00
11:35 am 11:35 Cloudy 63 17.2 58 14.4 84 84 WNW 14 22 29.90 1013 10 16 0.00 0.00
11:53 am 11:53 Cloudy 64 17.8 58 14.4 81 81 NW 14 22 29.91 1013 10 16 0.00 0.00
12:34 pm 12:34 Mostly Cloudy 68 20 59 15 73 73 NW 8 13 29.90 1013 10 16 0.00 0.00
12:41 pm 12:41 Partly Cloudy 69 20.6 60 15.6 73 73 WNW 12 19 29.90 1013 10 16 0.00 0.00
12:53 pm 12:53 Partly Cloudy 69 20.6 59 15 70 70 WNW 12 19 29.91 1013 10 16 0.00 0.00
1:53 pm 13:53 Partly Cloudy 71 21.7 60 15.6 68 68 VRB 6 9 29.90 1012 10 16 0.00 0.00
2:53 pm 14:53 Partly Cloudy 73 22.8 60 15.6 64 64 W 13 20 29.89 1012 10 16 0.00 0.00
3:53 pm 15:53 Sunny 72 22.2 60 15.6 66 66 W 7 11 29.89 1012 10 16 0.00 0.00
4:53 pm 16:53 Sunny 72 22.2 60 15.6 66 66 W 10 17 29.90 1013 10 16 0.00 0.00
5:53 pm 17:53 Mostly Sunny 70 21.1 60 15.6 71 71 W 8 13 29.91 1013 10 16 0.00 0.00
6:53 pm 18:53 Sunny 67 19.4 59 15 76 76 W 5 7 29.92 1013 10 16 0.00 0.00
7:53 pm 19:53 Clear 63 17.2 59 15 87 87 W 5 7 29.93 1014 10 16 0.00 0.00
8:53 pm 20:53 Clear 60 15.6 58 14.4 93 93 Calm 29.95 1014 10 16 0.00 0.00
9:53 pm 21:53 Clear 61 16.1 59 15 93 93 WNW 3 6 29.96 1014 10 16 0.00 0.00
10:53 pm 22:53 Clear 58 14.4 57 13.9 97 97 Calm 29.96 1015 10 16 0.00 0.00
11:53 pm 23:53 Clear 59 15 58 14.4 96 96 Calm 29.97 1015 10 16 0.00 0.00

Powered by AerisWeather